Location: Unspecified
(0.0000°N, 0.0000°E)
Time: 00:30:31
(UTC+00:00)

DSAT - Pass Details

Date: 13 June 2023
Orbit: 498 x 655 km, 97.5° (Epoch: 28 September)

Event Time Altitude Azimuth Distance (km) Brightness Sun altitude
Rises 05:04:07 0° 6° (N) 2,973 ? -12.8°
Reaches altitude 10° 05:06:22 10° 3° (N) 2,054 ? -12.3°
Maximum altitude 05:10:50 64° 281° (WNW) 709 ? -11.3°
Drops below altitude 10° 05:15:09 10° 200° (SSW) 1,991 ? -10.3°
Enters shadow 05:17:04 - 197° (SSW) 2,775 ? -9.9°
